Weather History for Greenville, MS

Change the Weather History Date:

Saturday, October 6, 2012

  Actual Average Record
Temperature  
Mean Temperature 52 °F 68 °F  
Max Temperature 56 °F 80 °F 94 °F (1954)
Min Temperature 48 °F 55 °F 36 °F (1932)
Degree Days  
Heating Degree Days 13 2  
Month to date heating degree days 15 7  
Since 1 July heating degree days 18 13  
Cooling Degree Days 0 4  
Month to date cooling degree days 13 28  
Year to date cooling degree days 2386 2108  
Growing Degree Days 2 (Base 50)    
Moisture  
Dew Point 46 °F    
Average Humidity 80    
Maximum Humidity 93    
Minimum Humidity 66    
Precipitation  
Precipitation T in 0.15 in 3.13 in (2013)
Month to date precipitation 0.59 0.90  
Year to date precipitation 33.72 38.54  
Sea Level Pressure  
Sea Level Pressure 30.16 in    
Wind  
Wind Speed 13 mph (NNE)    
Max Wind Speed 23 mph    
Max Gust Speed 29 mph    
Visibility 10 miles    
Events      
T = Trace of Precipitation, MM = Missing Value Source: NWS Daily Summary

Daily Weather History Graph

Daily Weather History Graph

Search for Another Location

Airport:

Trip Planner

Search our weather history database for the weather conditions in past years. The results will help you decide how hot, cold, wet, or windy it might be!

Date:

Astronomy

Oct. 06, 2012 Rise Set
Actual Time 7:02 AM CDT 6:41 PM CDT
Civil Twilight 6:37 AM CDT 7:05 PM CDT
Nautical Twilight 6:08 AM CDT 7:34 PM CDT
Astronomical Twilight 5:39 AM CDT 8:03 PM CDT
Moon 11:09 PM CDT (10/6) 12:43 PM CDT (10/6)
Length of Visible Light 12h 28m
Length of Day
11h 38m
Waning Gibbous, 65% of the Moon is Illuminated
Oct 6
Waning Gibbous
Oct 8
Last Quarter
Oct 15
New
Oct 21
First Quarter
Oct 29
Full

Hourly Weather History & Observations

Time (CDT) Temp. Dew Point Humidity Pressure Visibility Wind Dir Wind Speed Gust Speed Precip Events Conditions
12:53 AM 55.9 °F 53.1 °F 90% 30.10 in 10.0 mi North 21.9 mph 25.3 mph N/A   Overcast
1:53 AM 55.0 °F 51.1 °F 86% 30.12 in 10.0 mi NNE 18.4 mph 24.2 mph N/A   Overcast
2:42 AM 53.6 °F 46.4 °F 77% 30.10 in 10.0 mi North 20.7 mph 27.6 mph N/A   Overcast
2:53 AM 53.1 °F 46.9 °F 80% 30.12 in 10.0 mi NNE 16.1 mph 27.6 mph N/A   Overcast
3:22 AM 51.8 °F 48.2 °F 88% 30.10 in 10.0 mi North 13.8 mph 20.7 mph N/A   Overcast
3:53 AM 52.0 °F 48.0 °F 86% 30.11 in 10.0 mi North 12.7 mph - N/A   Overcast
4:53 AM 51.1 °F 46.0 °F 83% 30.13 in 10.0 mi NNE 17.3 mph 26.5 mph N/A   Overcast
5:53 AM 50.0 °F 46.0 °F 86% 30.15 in 10.0 mi North 15.0 mph - N/A   Overcast
6:53 AM 50.0 °F 46.0 °F 86% 30.16 in 10.0 mi North 15.0 mph 23.0 mph N/A   Overcast
7:53 AM 48.9 °F 45.0 °F 86% 30.18 in 10.0 mi NNE 16.1 mph - N/A   Overcast
8:50 AM 50.0 °F 44.6 °F 82% 30.17 in 10.0 mi North 13.8 mph 23.0 mph N/A   Overcast
8:53 AM 50.0 °F 44.6 °F 82% 30.17 in 10.0 mi NNE 13.8 mph - N/A   Overcast
9:53 AM 50.0 °F 45.0 °F 83% 30.19 in 10.0 mi NNE 12.7 mph 21.9 mph 0.00 in   Overcast
10:53 AM 52.0 °F 45.0 °F 77% 30.17 in 10.0 mi NE 17.3 mph - N/A   Overcast
11:53 AM 55.0 °F 45.0 °F 69% 30.17 in 10.0 mi NNE 10.4 mph - N/A   Overcast
12:53 PM 55.9 °F 46.0 °F 69% 30.17 in 10.0 mi North 10.4 mph - N/A   Overcast
1:53 PM 55.9 °F 46.0 °F 69% 30.14 in 10.0 mi NNE 11.5 mph - N/A   Overcast
2:53 PM 55.9 °F 44.1 °F 64% 30.14 in 10.0 mi NNE 13.8 mph - N/A   Overcast
3:53 PM 53.1 °F 44.1 °F 71% 30.14 in 10.0 mi North 17.3 mph 21.9 mph N/A   Overcast
4:53 PM 51.1 °F 45.0 °F 80% 30.15 in 10.0 mi North 13.8 mph 20.7 mph 0.00 in   Overcast
5:53 PM 50.0 °F 44.1 °F 80% 30.16 in 10.0 mi North 12.7 mph - N/A   Overcast
6:53 PM 50.0 °F 44.1 °F 80% 30.17 in 10.0 mi North 11.5 mph - N/A   Overcast
7:53 PM 50.0 °F 44.1 °F 80% 30.18 in 10.0 mi NNE 10.4 mph - N/A   Overcast
8:35 PM 50.0 °F 44.6 °F 82% 30.15 in 10.0 mi NNE 8.1 mph - N/A   Overcast
8:44 PM 50.0 °F 44.6 °F 82% 30.16 in 10.0 mi NNE 8.1 mph - N/A   Overcast
8:53 PM 50.0 °F 44.1 °F 80% 30.20 in 10.0 mi North 9.2 mph - N/A   Overcast
9:17 PM 51.8 °F 44.6 °F 76% 30.18 in 10.0 mi North 9.2 mph - N/A   Overcast
9:53 PM 51.1 °F 43.0 °F 74% 30.20 in 10.0 mi NNE 8.1 mph - N/A   Overcast
10:53 PM 51.8 °F 44.6 °F 76% 30.17 in 10.0 mi North 8.1 mph - N/A   Overcast
11:53 PM 50.0 °F 43.0 °F 77% 30.21 in 10.0 mi North 15.0 mph - N/A   Overcast